Hourly Weather Uige

Today, 14 July, Tuesday

Time Temperature Precipitation Wind Pressure Humidity
00:00 +19°C° 0 mm 1 mps 691 mmHg 86%
01:00 +18°C° 0 mm 1 mps 691 mmHg 92%
02:00 +18°C° 0 mm 1 mps 690 mmHg 94%
03:00 +16°C° 0 mm 1 mps 690 mmHg 95%
04:00 +16°C° 0 mm 1 mps 690 mmHg 97%
05:00 +16°C° 0 mm 1 mps 690 mmHg 94%
06:00 +18°C° 0 mm 1 mps 690 mmHg 91%
07:00 +18°C° 0 mm 1 mps 691 mmHg 88%
08:00 +22°C° 0 mm 1 mps 691 mmHg 70%
09:00 +27°C° 0 mm 1 mps 692 mmHg 52%
10:00 +31°C° 0 mm 1 mps 692 mmHg 34%
11:00 +33°C° 0 mm 1 mps 692 mmHg 29%
12:00 +35°C° 0 mm 1 mps 692 mmHg 24%
13:00 +37°C° 0 mm 1 mps 691 mmHg 19%
14:00 +37°C° 0 mm 2 mps 691 mmHg 20%
15:00 +37°C° 0 mm 2 mps 690 mmHg 20%
16:00 +36°C° 0 mm 2 mps 689 mmHg 21%
17:00 +32°C° 0 mm 2 mps 689 mmHg 30%
18:00 +29°C° 0 mm 1 mps 689 mmHg 39%
19:00 +25°C° 0 mm 1 mps 689 mmHg 48%
20:00 +24°C° 0 mm 1 mps 690 mmHg 56%
21:00 +22°C° 0 mm 1 mps 690 mmHg 63%
22:00 +21°C° 0 mm 1 mps 691 mmHg 71%
23:00 +20°C° 0 mm 1 mps 691 mmHg 80%

Tomorrow, 15 July, Wednesday

Time Temperature Precipitation Wind Pressure Humidity
00:00 +19°C° 0 mm 1 mps 691 mmHg 88%
01:00 +16°C° 0 mm 0 mps 691 mmHg 96%
02:00 +18°C° 0 mm 1 mps 691 mmHg 95%
03:00 +18°C° 0 mm 1 mps 690 mmHg 93%
04:00 +19°C° 0 mm 1 mps 690 mmHg 92%
05:00 +19°C° 0 mm 1 mps 691 mmHg 90%
06:00 +19°C° 0 mm 1 mps 691 mmHg 87%
07:00 +19°C° 0 mm 1 mps 692 mmHg 84%
08:00 +23°C° 0 mm 1 mps 693 mmHg 67%
09:00 +27°C° 0 mm 1 mps 693 mmHg 50%
10:00 +30°C° 0 mm 1 mps 694 mmHg 33%
11:00 +32°C° 0 mm 2 mps 693 mmHg 27%
12:00 +35°C° 0 mm 2 mps 693 mmHg 21%
13:00 +37°C° 0 mm 3 mps 692 mmHg 16%
14:00 +36°C° 0 mm 2 mps 692 mmHg 16%
15:00 +36°C° 0 mm 2 mps 691 mmHg 17%
16:00 +36°C° 0 mm 2 mps 690 mmHg 17%
17:00 +32°C° 0 mm 2 mps 690 mmHg 23%
18:00 +29°C° 0 mm 1 mps 690 mmHg 29%
19:00 +26°C° 0 mm 1 mps 691 mmHg 35%
20:00 +24°C° 0 mm 1 mps 691 mmHg 44%
21:00 +23°C° 0 mm 1 mps 692 mmHg 52%
22:00 +22°C° 0 mm 1 mps 692 mmHg 61%
23:00 +20°C° 0 mm 1 mps 692 mmHg 72%

Day after tomorrow, 16 July, Thursday

Time Temperature Precipitation Wind Pressure Humidity
00:00 +19°C° 0 mm 1 mps 692 mmHg 84%
01:00 +18°C° 0 mm 1 mps 692 mmHg 95%
02:00 +19°C° 0 mm 1 mps 692 mmHg 93%
03:00 +19°C° 0 mm 1 mps 692 mmHg 91%
04:00 +20°C° 0 mm 1 mps 692 mmHg 89%
05:00 +20°C° 0 mm 1 mps 692 mmHg 87%
06:00 +20°C° 0 mm 1 mps 693 mmHg 86%
07:00 +20°C° 0 mm 1 mps 693 mmHg 84%
08:00 +23°C° 0 mm 1 mps 694 mmHg 66%
09:00 +27°C° 0 mm 2 mps 694 mmHg 47%
10:00 +30°C° 0 mm 2 mps 695 mmHg 29%
11:00 +32°C° 0 mm 2 mps 694 mmHg 24%
12:00 +35°C° 0 mm 3 mps 693 mmHg 18%
13:00 +36°C° 0 mm 3 mps 693 mmHg 13%
14:00 +36°C° 0 mm 3 mps 692 mmHg 14%
15:00 +36°C° 0 mm 2 mps 692 mmHg 14%
16:00 +36°C° 0 mm 2 mps 691 mmHg 14%
17:00 +32°C° 0 mm 2 mps 691 mmHg 19%
18:00 +28°C° 0 mm 1 mps 691 mmHg 23%
19:00 +25°C° 0 mm 1 mps 691 mmHg 28%
20:00 +24°C° 0 mm 1 mps 692 mmHg 38%
21:00 +22°C° 0 mm 1 mps 692 mmHg 47%
22:00 +21°C° 0 mm 1 mps 692 mmHg 57%
23:00 +20°C° 0 mm 1 mps 692 mmHg 68%

17 July, Friday

Time Temperature Precipitation Wind Pressure Humidity
00:00 +19°C° 0 mm 1 mps 692 mmHg 79%
01:00 +18°C° 0 mm 1 mps 692 mmHg 90%
02:00 +18°C° 0 mm 1 mps 692 mmHg 92%
03:00 +16°C° 0 mm 1 mps 692 mmHg 95%
04:00 +16°C° 0 mm 1 mps 692 mmHg 97%
05:00 +18°C° 0 mm 1 mps 692 mmHg 94%
06:00 +18°C° 0 mm 1 mps 693 mmHg 91%
07:00 +19°C° 0 mm 1 mps 693 mmHg 88%
08:00 +22°C° 0 mm 1 mps 694 mmHg 71%
09:00 +25°C° 0 mm 1 mps 694 mmHg 54%
10:00 +28°C° 0 mm 2 mps 694 mmHg 38%
11:00 +30°C° 0 mm 2 mps 694 mmHg 31%
12:00 +32°C° 0 mm 2 mps 693 mmHg 24%
13:00 +36°C° 0 mm 2 mps 693 mmHg 16%
14:00 +35°C° 0 mm 2 mps 692 mmHg 16%
15:00 +34°C° 0 mm 1 mps 691 mmHg 16%
16:00 +34°C° 0 mm 1 mps 691 mmHg 16%
17:00 +31°C° 0 mm 1 mps 691 mmHg 22%
18:00 +28°C° 0 mm 1 mps 691 mmHg 27%
19:00 +25°C° 0 mm 1 mps 691 mmHg 32%
20:00 +23°C° 0 mm 1 mps 691 mmHg 43%
21:00 +21°C° 0 mm 1 mps 692 mmHg 53%
22:00 +20°C° 0 mm 1 mps 692 mmHg 64%
23:00 +19°C° 0 mm 1 mps 692 mmHg 72%

18 July, Saturday

Time Temperature Precipitation Wind Pressure Humidity
00:00 +18°C° 0 mm 1 mps 692 mmHg 80%
01:00 +16°C° 0 mm 1 mps 692 mmHg 88%
02:00 +16°C° 0 mm 1 mps 691 mmHg 90%
03:00 +16°C° 0 mm 1 mps 691 mmHg 93%
04:00 +15°C° 0 mm 1 mps 691 mmHg 96%
05:00 +16°C° 0 mm 1 mps 692 mmHg 91%
06:00 +16°C° 0 mm 1 mps 692 mmHg 86%
07:00 +18°C° 0 mm 1 mps 693 mmHg 82%
08:00 +22°C° 0 mm 1 mps 693 mmHg 62%
09:00 +26°C° 0 mm 2 mps 694 mmHg 43%
10:00 +30°C° 0 mm 2 mps 694 mmHg 23%
11:00 +32°C° 0 mm 2 mps 694 mmHg 20%
12:00 +34°C° 0 mm 2 mps 693 mmHg 17%
13:00 +36°C° 0 mm 2 mps 692 mmHg 14%
14:00 +35°C° 0 mm 1 mps 692 mmHg 15%
15:00 +35°C° 0 mm 1 mps 691 mmHg 15%
16:00 +34°C° 0 mm 1 mps 690 mmHg 15%
17:00 +31°C° 0 mm 1 mps 691 mmHg 20%
18:00 +28°C° 0 mm 1 mps 691 mmHg 24%
19:00 +24°C° 0 mm 1 mps 691 mmHg 28%
20:00 +23°C° 0 mm 1 mps 691 mmHg 34%
21:00 +22°C° 0 mm 1 mps 691 mmHg 40%
22:00 +20°C° 0 mm 1 mps 692 mmHg 46%
23:00 +17°C° 0 mm 0 mps 692 mmHg 57%

19 July, Sunday

Time Temperature Precipitation Wind Pressure Humidity
00:00 +16°C° 0 mm 0 mps 691 mmHg 69%
01:00 +15°C° 0 mm 0 mps 691 mmHg 80%
02:00 +14°C° 0 mm 0 mps 691 mmHg 83%
03:00 +14°C° 0 mm 0 mps 691 mmHg 87%
04:00 +15°C° 0 mm 1 mps 691 mmHg 90%
05:00 +15°C° 0 mm 1 mps 691 mmHg 87%
06:00 +16°C° 0 mm 1 mps 692 mmHg 84%
07:00 +16°C° 0 mm 1 mps 692 mmHg 81%
08:00 +22°C° 0 mm 1 mps 693 mmHg 62%
09:00 +26°C° 0 mm 1 mps 694 mmHg 44%
10:00 +30°C° 0 mm 1 mps 694 mmHg 25%
11:00 +32°C° 0 mm 1 mps 694 mmHg 22%
12:00 +35°C° 0 mm 1 mps 693 mmHg 18%
13:00 +37°C° 0 mm 1 mps 693 mmHg 15%
14:00 +36°C° 0 mm 1 mps 692 mmHg 15%
15:00 +36°C° 0 mm 1 mps 692 mmHg 16%
16:00 +35°C° 0 mm 1 mps 691 mmHg 16%
17:00 +31°C° 0 mm 1 mps 691 mmHg 22%
18:00 +28°C° 0 mm 1 mps 691 mmHg 29%
19:00 +24°C° 0 mm 1 mps 690 mmHg 35%
20:00 +23°C° 0 mm 1 mps 691 mmHg 40%
21:00 +20°C° 0 mm 0 mps 691 mmHg 44%
22:00 +19°C° 0 mm 0 mps 691 mmHg 49%
23:00 +20°C° 0 mm 1 mps 691 mmHg 56%
Show more